Home   Weather   Albuquerque   Past weeks

Flag for USA Past Weather in Albuquerque, New Mexico, USA — Yesterday and Last 2 Weeks

Now
68 °F

Partly sunny.


Feels Like: 68 °F
Forecast: 50 / 74 °F
Wind: 18 mph from Southeast

Location: Albuquerque International Airport

Current Time: Sep 26, 2016 at 2:52:28 PM

Latest Report: Sep 26, 2016 at 1:52 PM


Visibility: 10 mi

Pressure: 30.21 "Hg (25.33 "Hg at 1510m altitude)

Humidity: 25%

Dew Point: 31 °F

Location of AlbuquerqueLocation

Past Weather in Albuquerque — Graph

°F

Albuquerque Temperature Yesterday

Maximum temperature yesterday: 74 °F (at 4:52 PM)
Minimum temperature yesterday: 51 °F (at 4:52 AM)
Average temperature yesterday: 63 °F

High & Low Weather Summary for the Past Weeks

 TemperatureHumidityPressure
High88 °F (Sep 19, 4:52 PM)90% (Sep 13, 6:52 AM)30.32 "Hg (Sep 13, 6:52 AM)
Low44 °F (Sep 24, 7:52 AM)6% (Sep 18, 5:52 PM)29.70 "Hg (Sep 23, 2:52 AM)
Average69 °F41%29.97 "Hg
* Reported Sep 11 12:52 PM — Sep 26 12:52 PM, Albuquerque, Weather by CustomWeather, © 2016

Note: Actual official high and low records may vary slightly from our data, if they occured in-between our weather recording intervals... More about our weather records

Advertising

Albuquerque Weather History for the Previous 24 Hours

Scroll right to see more
 ConditionsComfort  
Time TempWeatherWind HumidityBarometerVisibility
12:52 PM
Mon, Sep 26
68 °FPartly sunny.3 mph28%30.22 "Hg10 mi
11:52 AM68 °FPartly sunny.8 mph28%30.25 "Hg10 mi
10:52 AM63 °FScattered clouds.5 mph34%30.29 "Hg10 mi
9:52 AM59 °FPartly sunny.7 mph39%30.31 "Hg10 mi
8:52 AM56 °FPartly sunny.5 mph44%30.32 "Hg10 mi
7:52 AM56 °FScattered clouds.No wind44%30.31 "Hg10 mi
6:52 AM54 °FPassing clouds.6 mph47%30.30 "Hg10 mi
5:52 AM53 °FClear.14 mph48%30.27 "Hg10 mi
4:52 AM55 °FClear.14 mph45%30.26 "Hg10 mi
3:52 AM55 °FClear.12 mph44%30.27 "Hg10 mi
2:52 AM56 °FClear.15 mph42%30.26 "Hg10 mi
1:52 AM58 °FClear.16 mph41%30.24 "Hg10 mi
12:52 AM59 °FPassing clouds.14 mph41%30.24 "Hg10 mi
11:52 PM
Sun, Sep 25
61 °FPassing clouds.17 mph38%30.22 "Hg10 mi
10:52 PM62 °FPassing clouds.16 mph37%30.21 "Hg10 mi
9:52 PM64 °FPassing clouds.21 mph34%30.20 "Hg10 mi
8:52 PM65 °FPassing clouds.13 mph34%30.20 "Hg10 mi
7:52 PM67 °FPassing clouds.20 mph32%30.18 "Hg10 mi
6:52 PM69 °FBroken clouds.18 mph29%30.16 "Hg10 mi
5:52 PM72 °FBroken clouds.22 mph26%30.14 "Hg10 mi
4:52 PM74 °FBroken clouds.20 mph24%30.12 "Hg10 mi
3:52 PM73 °FScattered clouds.21 mph24%30.12 "Hg10 mi
3:03 PM73 °FScattered clouds.17 mph24%30.30 "Hg10 mi
2:52 PM72 °FScattered clouds.15 mph25%30.12 "Hg10 mi
Weather by CustomWeather, © 2016

See weather overviewHow to use our weather pages